Matala Airport

Jump to: basic info | weather | runways | comments

Related pages: nearby airports | nearby navaids | notams | map

Basic information (top)

Codes: FN18
Location: lon -14.727500, lat 15.014000, elev 4,120 ft / 1,256 m msl
Status: small_airport

Weather (top)

Current conditions for Lubango Airport 84nm (156km) W (rec'd 2015/03/27 14:00Z):

FNUB 271400Z 19010KT 6000 BKN025 FEW025CB 25/18 Q1022 RMK VCTSRA

Airport forecast for Lubango Airport 84nm (156km) W (rec'd 2015/03/27 12:00Z):

TAF FNUB 271100Z 2712/2724 13010KT 9999 SCT025 
      TEMPO 2712/2718 BKN025 
      BECMG 2714/2716 27005G15KT SCT015 FEW025CB BKN040 PROB30 
      TEMPO 2714/2720 6000 SCT009 FEW025CB

Runways (top)

10/28: 8,015 x 98 ft (2,443 x 30 m) — paved — not lighted

Latest comments (top)

No comments yet for Matala Airport

More... (top)

See also NOTAMs and nearby airports and navaids, or visit the Matala Airport page at the main OurAirports website..